Date String (YYYY-MM-DD hh:mm:ss) UTC,Instrument flags,Ambient pressure (hPa),Sample flow (lpm),Bypass flow (lpm),Sample temperature (°C),Ambient temperature (°C),ASC tube jacket temperature (°C),LED temperature (°C),Box temperature (°C),Sample RH (%),Span deviation,Mass concentration (μg/m³),Mass concentration (μg/m³),Mass concentration (μg/m³)
DateTimeUTC,F1_M11,P_M11,Q1_M11,Q2_M11,T1_M11,T2_M11,T3_M11,T4_M11,T5_M11,U1_M11,ZSPAN_M11,X2_M11,X0_M11,X1_M11
2023-02-25 09:00:00,,0825.2,4.99,0.00,22.4,20.8,00.0,31.1,24.0,09.0,0002.0,0011.16,0016.65,0010.66
2023-02-25 09:01:00,,0825.2,5.00,0.00,22.4,20.7,00.0,31.1,24.0,09.1,0001.4,0010.14,0015.68,0009.73
2023-02-25 09:02:00,,0825.2,5.00,0.00,22.3,20.6,00.0,31.1,24.0,09.1,0000.4,0009.01,0014.40,0008.65
2023-02-25 09:03:00,,0825.2,5.00,0.00,22.3,20.5,00.0,31.1,23.9,09.1,0000.0,0007.98,0013.06,0007.62
2023-02-25 09:04:00,,0825.3,4.99,0.00,22.3,20.4,00.0,31.1,23.9,09.2,0000.0,0007.01,0012.37,0006.67
2023-02-25 09:05:00,,0825.2,5.00,0.00,22.2,20.3,00.0,31.1,23.8,09.2,0000.0,0006.20,0011.34,0005.87
2023-02-25 09:06:00,,0825.2,4.99,0.00,22.2,20.9,00.0,31.0,23.9,09.2,0000.0,0005.66,0010.83,0005.30
2023-02-25 09:07:00,,0825.2,5.01,0.00,22.3,22.1,00.0,31.0,24.2,09.1,0000.0,0005.16,0010.39,0004.78
2023-02-25 09:08:00,,0825.2,4.95,0.00,22.5,23.0,00.0,31.0,24.5,09.1,0000.0,0004.52,0009.58,0004.17
2023-02-25 09:09:00,,0825.1,5.02,0.00,22.5,22.6,00.0,31.1,24.4,09.1,0000.0,0004.45,0009.61,0004.06
2023-02-25 09:10:00,,0825.1,5.01,0.00,22.5,22.0,00.0,31.1,24.2,09.1,0000.0,0004.75,0009.97,0004.32
2023-02-25 09:11:00,,0825.1,4.99,0.00,22.5,21.5,00.0,31.1,24.2,09.1,0000.0,0005.42,0010.07,0004.96
2023-02-25 09:12:00,,0825.1,4.99,0.00,22.4,21.1,00.0,31.1,24.1,09.1,0000.0,0006.14,0010.68,0005.67
2023-02-25 09:13:00,,0825.0,5.02,0.00,22.4,20.8,00.0,31.1,24.0,09.1,0000.0,0006.90,0011.46,0006.41
2023-02-25 09:14:00,,0825.0,4.99,0.00,22.3,20.6,00.0,31.1,23.9,09.1,0000.0,0007.72,0012.61,0007.19
2023-02-25 09:15:00,,0825.0,5.00,0.00,22.3,20.4,00.0,31.1,23.8,09.2,0000.0,0008.62,0013.65,0008.06
2023-02-25 09:16:00,,0824.9,5.00,0.00,22.2,20.2,00.0,31.1,23.8,09.2,0000.0,0009.51,0014.79,0008.88
2023-02-25 09:17:00,,0824.9,4.99,0.00,22.2,20.1,00.0,31.0,23.7,09.3,0000.0,0010.08,0015.40,0009.51
2023-02-25 09:18:00,,0824.9,5.00,0.00,22.2,21.0,00.0,31.0,23.9,09.2,0000.0,0010.20,0015.37,0009.63
2023-02-25 09:19:00,,0824.9,5.00,0.00,22.3,22.1,00.0,31.0,24.2,09.2,0000.0,0010.38,0015.58,0009.81
2023-02-25 09:20:00,,0824.9,4.99,0.00,22.4,22.7,00.0,31.0,24.3,09.1,0000.0,0010.02,0014.95,0009.47
2023-02-25 09:21:00,,0824.9,4.99,0.00,22.4,22.0,00.0,31.1,24.1,09.1,0000.0,0009.63,0014.38,0009.10
2023-02-25 09:22:00,,0824.9,5.00,0.00,22.3,21.4,00.0,31.1,23.9,09.1,0000.0,0009.10,0013.78,0008.61
2023-02-25 09:23:00,,0824.9,4.99,0.00,22.3,20.9,00.0,31.1,23.8,09.2,0000.0,0008.43,0012.92,0007.97
2023-02-25 09:24:00,,0824.9,5.01,0.00,22.2,20.5,00.0,31.0,23.7,09.2,0000.0,0007.70,0012.04,0007.23
2023-02-25 09:25:00,,0824.9,5.00,0.00,22.1,20.2,00.0,31.0,23.5,09.2,0000.0,0006.97,0011.01,0006.53
2023-02-25 09:26:00,,0824.9,5.01,0.00,22.0,19.8,00.0,31.0,23.3,09.2,0000.0,0006.18,0009.59,0005.78
2023-02-25 09:27:00,,0824.9,5.01,0.00,21.9,19.9,00.0,30.9,23.3,09.3,0000.0,0005.83,0009.04,0005.44
2023-02-25 09:28:00,,0824.9,5.02,0.00,22.0,21.1,00.0,30.9,23.7,09.3,0000.0,0005.51,0008.65,0005.12
2023-02-25 09:29:00,,0824.9,4.97,0.00,22.1,22.1,00.0,30.9,24.0,09.2,0000.0,0005.49,0008.61,0005.09
2023-02-25 09:30:00,,0824.9,5.02,0.00,22.2,22.6,00.0,30.9,24.2,09.0,0000.0,0005.29,0008.64,0004.90
2023-02-25 09:31:00,,0824.9,5.01,0.00,22.3,22.2,00.0,31.0,24.1,09.0,0000.0,0005.29,0008.74,0004.91
2023-02-25 09:32:00,,0824.9,4.99,0.00,22.2,21.6,00.0,31.0,23.9,09.0,0000.0,0005.26,0008.73,0004.88
2023-02-25 09:33:00,,0825.0,5.00,0.00,22.2,21.2,00.0,31.0,23.8,09.0,0000.0,0005.36,0008.91,0004.96
2023-02-25 09:34:00,,0824.9,5.00,0.00,22.1,20.7,00.0,31.0,23.7,09.1,0000.0,0005.72,0009.46,0005.30
2023-02-25 09:35:00,,0824.9,5.00,0.00,22.1,20.3,00.0,30.9,23.5,09.2,0000.0,0006.17,0010.52,0005.72
2023-02-25 09:36:00,,0824.9,5.00,0.00,22.0,20.0,00.0,30.9,23.5,09.2,0000.0,0006.49,0011.34,0006.03
2023-02-25 09:37:00,,0824.9,5.00,0.00,21.9,19.8,00.0,30.9,23.3,09.2,0000.0,0006.70,0012.26,0006.26
2023-02-25 09:38:00,,0824.9,5.01,0.00,21.8,19.7,00.0,30.8,23.2,09.2,0000.0,0006.66,0012.16,0006.23
2023-02-25 09:39:00,,0824.8,5.00,0.00,21.8,19.6,00.0,30.8,23.2,09.1,0000.0,0006.42,0011.88,0005.99
2023-02-25 09:40:00,,0824.7,5.00,0.00,21.8,20.8,00.0,30.8,23.4,09.1,0000.0,0006.56,0012.04,0006.13
2023-02-25 09:41:00,,0824.8,4.98,0.00,21.9,22.0,00.0,30.8,23.8,08.9,0000.0,0006.64,0011.93,0006.22
2023-02-25 09:42:00,,0824.8,5.09,0.00,22.0,22.4,00.0,30.8,23.9,08.8,0000.0,0006.56,0011.69,0006.16
2023-02-25 09:43:00,,0824.7,5.03,0.00,22.0,21.7,00.0,30.8,23.7,08.8,0000.0,0006.63,0011.75,0006.23
2023-02-25 09:44:00,,0824.6,5.01,0.00,22.0,21.2,00.0,30.8,23.6,08.8,0000.0,0006.57,0011.62,0006.18
2023-02-25 09:45:00,,0824.5,4.98,0.00,22.0,20.7,00.0,30.8,23.5,08.7,0000.0,0006.18,0011.04,0005.80
2023-02-25 09:46:00,,0824.6,5.04,0.00,21.9,20.4,00.0,30.8,23.4,08.8,0000.0,0005.70,0009.96,0005.39
2023-02-25 09:47:00,,0824.6,5.00,0.00,21.9,20.1,00.0,30.8,23.3,08.9,0000.0,0005.37,0009.23,0005.07
2023-02-25 09:48:00,,0824.7,5.00,0.00,21.8,19.8,00.0,30.7,23.2,08.9,0000.0,0005.21,0008.22,0004.94
2023-02-25 09:49:00,,0824.6,5.00,0.00,21.7,19.6,00.0,30.7,23.1,08.9,0000.0,0005.02,0008.01,0004.75
2023-02-25 09:50:00,,0824.5,5.00,0.00,21.7,19.9,00.0,30.7,23.2,08.9,0000.0,0004.98,0007.91,0004.72
2023-02-25 09:51:00,,0824.6,5.01,0.00,21.7,21.2,00.0,30.6,23.5,08.9,0000.0,0004.88,0008.13,0004.65
2023-02-25 09:52:00,,0824.6,4.99,0.00,21.9,22.4,00.0,30.7,23.8,08.8,0000.0,0004.99,0008.58,0004.73
2023-02-25 09:53:00,,0824.7,5.06,0.00,22.0,22.4,00.0,30.7,23.9,08.8,0000.0,0005.33,0008.99,0005.04
2023-02-25 09:54:00,,0824.6,4.96,0.00,22.0,21.8,00.0,30.7,23.8,08.9,0000.0,0005.63,0009.36,0005.34
2023-02-25 09:55:00,,0824.6,5.00,0.00,22.0,21.2,00.0,30.7,23.6,08.9,0000.0,0005.91,0009.70,0005.61
2023-02-25 09:56:00,,0824.6,5.01,0.00,21.9,20.7,00.0,30.7,23.4,08.9,0000.0,0006.30,0010.11,0005.99
2023-02-25 09:57:00,,0824.8,4.98,0.00,21.8,20.3,00.0,30.7,23.3,09.0,0000.0,0006.85,0010.82,0006.51
2023-02-25 09:58:00,,0824.5,5.00,0.00,21.8,20.0,00.0,30.7,23.2,08.9,0000.0,0007.20,0011.46,0006.86
2023-02-25 09:59:00,,0824.8,5.00,0.00,21.7,19.8,00.0,30.6,23.2,08.9,0000.0,0007.39,0012.05,0007.01
